Tue, 27 Jul 2021 12:23:35 UTC

Information for RPM gmp-1:6.1.2-1.fc26.ppc64le.rpm

ID8726063
Namegmp
Version6.1.2
Release1.fc26
Epoch1
Archppc64le
SummaryA GNU arbitrary precision library
DescriptionThe gmp package contains GNU MP, a library for arbitrary precision arithmetic, signed integers operations, rational numbers and floating point numbers. GNU MP is designed for speed, for both small and very large operands. GNU MP is fast because it uses fullwords as the basic arithmetic type, it uses fast algorithms, it carefully optimizes assembly code for many CPUs' most common inner loops, and it generally emphasizes speed over simplicity/elegance in its operations. Install the gmp package if you need a fast arbitrary precision library.
Build Time2016-12-20 16:18:38 GMT
Size288,626
8e0d4272f94fa2a811f482fabc02d29c
LicenseLGPLv3+ or GPLv2+
Buildrootf26-build-7173265-678598
Provides
gmp = 1:6.1.2-1.fc26
gmp(ppc-64) = 1:6.1.2-1.fc26
libgmp.so.10()(64bit)
Obsoletes No Obsoletes
Conflicts No Conflicts
Requires
/sbin/ldconfig
/sbin/ldconfig
libc.so.6()(64bit)
libc.so.6(GLIBC_2.17)(64bit)
rpmlib(CompressedFileNames) <= 3.0.4-1
rpmlib(FileDigests) <= 4.6.0-1
rpmlib(PayloadFilesHavePrefix) <= 4.0-1
rpmlib(PayloadIsXz) <= 5.2-1
rtld(GNU_HASH)
Recommends No Recommends
Suggests No Suggests
Supplements No Supplements
Enhances No Enhances
Files
1 through 10 of 10
Name ascending sort Size
/usr/lib64/libgmp.so.1016
/usr/lib64/libgmp.so.10.3.2601,096
/usr/share/doc/gmp4,096
/usr/share/doc/gmp/NEWS36,740
/usr/share/doc/gmp/README4,051
/usr/share/licenses/gmp4,096
/usr/share/licenses/gmp/COPYING35,147
/usr/share/licenses/gmp/COPYING.LESSERv37,639
/usr/share/licenses/gmp/COPYINGv218,092
/usr/share/licenses/gmp/COPYINGv335,150
Component of
Page:
1 through 50 of 62092 >>>
Buildroot descending sort Created State
f26-build-7712003-694400 2017-02-17 13:22:27 expired
f26-build-7697615-694502 2017-02-16 02:40:42 expired
f26-build-7690598-694176 2017-02-14 21:10:27 expired
f26-build-7690184-695443 2017-02-14 19:22:16 expired
f26-build-7690180-695441 2017-02-14 19:21:06 expired
f26-build-7690171-695441 2017-02-14 19:18:43 expired
f26-build-7690165-695441 2017-02-14 19:17:33 expired
f26-build-7690150-695439 2017-02-14 19:14:04 expired
f26-build-7690143-695439 2017-02-14 19:13:44 expired
f26-build-7690132-695439 2017-02-14 19:13:26 expired
f26-build-7690129-695439 2017-02-14 19:13:21 expired
f26-build-7690116-695434 2017-02-14 19:03:45 expired
f26-build-7690112-695434 2017-02-14 19:03:43 expired
f26-build-7690108-695434 2017-02-14 19:03:42 expired
f26-build-7690100-695434 2017-02-14 19:03:24 expired
f26-build-7690091-695417 2017-02-14 18:54:56 expired
f26-build-7690082-695417 2017-02-14 18:52:17 expired
f26-build-7690071-695417 2017-02-14 18:51:12 expired
f26-build-7690062-695415 2017-02-14 18:50:17 expired
f26-build-7690051-695411 2017-02-14 18:44:43 expired
f26-build-7690044-695411 2017-02-14 18:42:56 expired
f26-build-7690041-695411 2017-02-14 18:41:13 expired
f26-build-7690034-695411 2017-02-14 18:40:46 expired
f26-build-7690026-695409 2017-02-14 18:40:13 expired
f26-build-7690016-695406 2017-02-14 18:35:00 expired
f26-build-7689996-695404 2017-02-14 18:30:41 expired
f26-build-7689991-695404 2017-02-14 18:29:15 expired
f26-build-7689988-695404 2017-02-14 18:29:14 expired
f26-build-7689987-695404 2017-02-14 18:29:14 expired
f26-build-7689965-695398 2017-02-14 18:22:49 expired
f26-build-7689961-695402 2017-02-14 18:22:39 expired
f26-build-7689949-695398 2017-02-14 18:18:26 expired
f26-build-7689942-695398 2017-02-14 18:17:26 expired
f26-build-7689937-695398 2017-02-14 18:17:23 expired
f26-build-7689926-695398 2017-02-14 18:14:34 expired
f26-build-7689921-695395 2017-02-14 18:13:56 expired
f26-build-7689913-695395 2017-02-14 18:09:41 expired
f26-build-7689902-695393 2017-02-14 18:06:38 expired
f26-build-7689895-695393 2017-02-14 18:06:34 expired
f26-build-7689887-695389 2017-02-14 18:02:55 expired
f26-build-7689879-695386 2017-02-14 17:56:32 expired
f26-build-7689868-695387 2017-02-14 17:56:09 expired
f26-build-7689867-695386 2017-02-14 17:55:58 expired
f26-build-7689860-695386 2017-02-14 17:55:50 expired
f26-build-7689857-695386 2017-02-14 17:55:28 expired
f26-build-7689839-695386 2017-02-14 17:53:31 expired
f26-build-7689827-695375 2017-02-14 17:50:15 expired
f26-build-7689819-695375 2017-02-14 17:46:00 expired
f26-build-7689804-695375 2017-02-14 17:44:15 expired
f26-build-7689787-695374 2017-02-14 17:41:04 expired